Slayton, MN

3:56 AM CST on November 24, 2017 (GMT -0600)
Slayton

Weather History for KDVP - February, 2014

Change the Weather History Date:

Monday, February 3, 2014

  Actual Average (KOTG) Record (KOTG)
Temperature  
Mean Temperature 8 °F -  
Max Temperature 15 °F 25 °F 55 °F (2005)
Min Temperature 1 °F 10 °F -24 °F (1989)
Degree Days  
Heating Degree Days 57    
Moisture  
Dew Point 4 °F    
Average Humidity 82    
Maximum Humidity 89    
Minimum Humidity 70    
Precipitation  
Precipitation 0.00 in - - ()
Sea Level Pressure  
Sea Level Pressure 30.19 in    
Wind  
Wind Speed 8 mph (NNW)    
Max Wind Speed 15 mph    
Max Gust Speed -    
Visibility 10 miles    
Events      
Averages and records for this station are not official NWS values.
T = Trace of Precipitation, MM = Missing Value Source: NWS Daily Summary

Daily Weather History Graph

Daily Weather History Graph

Search for Another Location

Airport or City:

Trip Planner

Search our weather history database for the weather conditions in past years. The results will help you decide how hot, cold, wet, or windy it might be!

Date:

Astronomy

Feb. 03, 2014 Rise Set
Actual Time 7:38 AM CST 5:36 PM CST
Civil Twilight 7:07 AM CST 6:06 PM CST
Nautical Twilight 6:33 AM CST 6:41 PM CST
Astronomical Twilight 5:59 AM CST 7:15 PM CST
Moon 9:30 AM CST (2/3) 10:39 PM CST (2/3)
Length of Visible Light 10h 59m
Length of Day
9h 58m
Waxing Crescent, 20% of the Moon is Illuminated
Feb 3
Waxing Crescent
Feb 6
First Quarter
Feb 14
Full
Feb 22
Last Quarter
Mar 1
New

Hourly Weather History & Observations

Time (CST) Temp. Windchill Dew Point Humidity Pressure Visibility Wind Dir Wind Speed Gust Speed Precip Events Conditions
12:14 AM 9.9 °F -6.1 °F 5.4 °F 82% 30.10 in 10.0 mi SSW 13.8 mph - N/A   Clear
12:34 AM 8.4 °F -6.5 °F 4.6 °F 85% 30.10 in 10.0 mi SSW 11.5 mph - N/A   Clear
12:54 AM 7.7 °F -8.9 °F 3.9 °F 85% 30.09 in 10.0 mi SSW 13.8 mph - N/A   Clear
1:13 AM 9.9 °F -6.7 °F 6.4 °F 86% 30.09 in 10.0 mi SSW 15.0 mph - N/A   Clear
1:34 AM 9.9 °F -5.5 °F 6.3 °F 85% 30.09 in 10.0 mi SW 12.7 mph - N/A   Clear
1:54 AM 11.8 °F -0.7 °F 7.7 °F 83% 30.08 in 10.0 mi WSW 9.2 mph - N/A   Clear
2:14 AM 10.8 °F -1.1 °F 6.1 °F 81% 30.09 in 10.0 mi SSW 8.1 mph - N/A   Clear
2:34 AM 9.1 °F -0.7 °F 5.7 °F 86% 30.10 in 10.0 mi South 5.8 mph - N/A   Clear
2:54 AM 9.7 °F -1.3 °F 5.9 °F 85% 30.11 in 10.0 mi SSW 6.9 mph - N/A   Clear
3:14 AM 8.6 °F -6.3 °F 5.5 °F 87% 30.11 in 10.0 mi South 11.5 mph - N/A   Clear
3:34 AM 7.7 °F -5.8 °F 4.6 °F 87% 30.11 in 10.0 mi SW 9.2 mph - N/A   Clear
3:54 AM 8.1 °F -3.2 °F 5.4 °F 89% 30.11 in 10.0 mi SW 6.9 mph - N/A   Clear
4:15 AM 8.6 °F -1.3 °F 5.0 °F 85% 30.12 in 10.0 mi SW 5.8 mph - N/A   Clear
4:34 AM 6.8 °F -3.5 °F 3.6 °F 87% 30.12 in 10.0 mi SW 5.8 mph - N/A   Clear
4:54 AM 7.9 °F 1.2 °F 4.6 °F 87% 30.12 in 10.0 mi West 3.5 mph - N/A   Clear
5:14 AM 6.6 °F -2.2 °F 3.4 °F 87% 30.13 in 10.0 mi WNW 4.6 mph - N/A   Clear
5:34 AM 4.1 °F -8.0 °F 0.5 °F 85% 30.13 in 10.0 mi WNW 6.9 mph - N/A   Clear
5:54 AM 2.8 °F -10.7 °F 0.1 °F 88% 30.13 in 10.0 mi WNW 8.1 mph - N/A   Clear
6:14 AM 4.3 °F -7.8 °F 1.0 °F 86% 30.13 in 10.0 mi WNW 6.9 mph - N/A   Clear
6:35 AM 3.2 °F -10.3 °F -0.2 °F 86% 30.13 in 10.0 mi WNW 8.1 mph - N/A   Clear
6:55 AM 3.0 °F - -0.2 °F 86% 30.13 in 10.0 mi Calm Calm - N/A   Clear
7:14 AM 2.8 °F -6.6 °F -0.6 °F 86% 30.14 in 10.0 mi NW 4.6 mph - N/A   Clear
7:34 AM 3.2 °F -6.2 °F -0.2 °F 86% 30.14 in 10.0 mi WNW 4.6 mph - N/A   Clear
7:53 AM 1.6 °F -9.7 °F -2.0 °F 85% 30.15 in 10.0 mi NW 5.8 mph - N/A   Clear
8:14 AM 1.6 °F -11.0 °F -2.0 °F 85% 30.16 in 10.0 mi NW 6.9 mph - N/A   Clear
8:34 AM 2.5 °F -10.0 °F -1.1 °F 85% 30.17 in 10.0 mi NW 6.9 mph - N/A   Clear
8:54 AM 4.6 °F -6.0 °F 0.9 °F 84% 30.18 in 10.0 mi NW 5.8 mph - N/A   Clear
9:14 AM 6.3 °F -4.1 °F 2.1 °F 83% 30.17 in 10.0 mi NNW 5.8 mph - N/A   Clear
9:34 AM 7.7 °F 1.0 °F 3.4 °F 83% 30.17 in 10.0 mi NNW 3.5 mph - N/A   Clear
9:54 AM 8.4 °F -2.8 °F 3.7 °F 81% 30.18 in 10.0 mi NNW 6.9 mph - N/A   Clear
10:13 AM 8.8 °F -4.4 °F 4.1 °F 81% 30.20 in 10.0 mi NW 9.2 mph - N/A   Clear
10:34 AM 10.2 °F -3.5 °F 5.7 °F 82% 30.20 in 10.0 mi NW 10.4 mph - N/A   Clear
10:54 AM 11.3 °F -0.4 °F 5.9 °F 79% 30.20 in 10.0 mi NNW 8.1 mph - N/A   Clear
11:15 AM 12.6 °F 1.1 °F 6.8 °F 78% 30.20 in 10.0 mi NNW 8.1 mph - N/A   Clear
11:34 AM 12.9 °F 0.7 °F 7.3 °F 78% 30.20 in 10.0 mi North 9.2 mph - N/A   Clear
11:55 AM 12.2 °F 2.9 °F 7.3 °F 81% 30.20 in 10.0 mi North 5.8 mph - N/A   Clear
12:14 PM 13.1 °F 0.9 °F 7.7 °F 79% 30.20 in 10.0 mi North 9.2 mph - N/A   Clear
12:34 PM 14.5 °F 4.6 °F 8.6 °F 77% 30.20 in 10.0 mi North 6.9 mph - N/A   Clear
12:54 PM 14.9 °F 5.0 °F 8.4 °F 76% 30.20 in 10.0 mi North 6.9 mph - N/A   Clear
1:14 PM 15.1 °F 4.2 °F 9.1 °F 77% 30.19 in 10.0 mi North 8.1 mph - N/A   Clear
1:34 PM 14.7 °F 2.9 °F 8.6 °F 77% 30.19 in 10.0 mi North 9.2 mph - N/A   Clear
1:55 PM 14.9 °F 4.0 °F 8.8 °F 77% 30.19 in 10.0 mi North 8.1 mph - N/A   Clear
2:14 PM 14.9 °F 2.3 °F 8.6 °F 76% 30.19 in 10.0 mi North 10.4 mph - N/A   Clear
2:33 PM 14.5 °F 3.6 °F 8.4 °F 77% 30.19 in 10.0 mi North 8.1 mph - N/A   Clear
2:54 PM 15.3 °F 4.4 °F 7.7 °F 72% 30.19 in 10.0 mi NNE 8.1 mph - N/A   Clear
3:14 PM 15.1 °F 4.2 °F 6.8 °F 70% 30.19 in 10.0 mi NE 8.1 mph - N/A   Clear
3:34 PM 14.9 °F 6.1 °F 6.6 °F 70% 30.21 in 10.0 mi NE 5.8 mph - N/A   Clear
3:54 PM 14.0 °F 2.9 °F 5.9 °F 70% 30.21 in 10.0 mi NNE 8.1 mph - N/A   Clear
4:14 PM 13.5 °F 1.3 °F 5.7 °F 71% 30.21 in 10.0 mi NE 9.2 mph - N/A   Clear
4:34 PM 13.6 °F 1.6 °F 5.9 °F 71% 30.21 in 10.0 mi NNE 9.2 mph - N/A   Clear
4:54 PM 13.1 °F 2.8 °F 5.7 °F 72% 30.20 in 10.0 mi NE 6.9 mph - N/A   Clear
5:14 PM 12.6 °F 1.1 °F 5.4 °F 73% 30.21 in 10.0 mi ENE 8.1 mph - N/A   Clear
5:34 PM 11.5 °F 0.9 °F 4.6 °F 74% 30.21 in 10.0 mi NE 6.9 mph - N/A   Clear
5:53 PM 10.9 °F 2.9 °F 4.6 °F 76% 30.23 in 10.0 mi NE 4.6 mph - N/A   Clear
6:14 PM 10.2 °F 2.0 °F 4.6 °F 78% 30.23 in 10.0 mi NE 4.6 mph - N/A   Scattered Clouds
6:34 PM 9.5 °F 1.2 °F 4.8 °F 81% 30.23 in 10.0 mi ENE 4.6 mph - N/A   Scattered Clouds
6:54 PM 9.5 °F 3.0 °F 4.8 °F 81% 30.23 in 10.0 mi NNE 3.5 mph - N/A   Mostly Cloudy
7:14 PM 8.8 °F - 4.3 °F 82% 30.24 in 10.0 mi Calm Calm - N/A   Mostly Cloudy
7:34 PM 8.6 °F - 4.5 °F 83% 30.25 in 10.0 mi Calm Calm - N/A   Mostly Cloudy
7:54 PM 8.4 °F - 3.9 °F 82% 30.26 in 10.0 mi Calm Calm - N/A   Scattered Clouds
8:14 PM 8.1 °F - 3.7 °F 83% 30.26 in 10.0 mi Calm Calm - N/A   Mostly Cloudy
8:34 PM 7.0 °F -1.7 °F 3.0 °F 84% 30.26 in 10.0 mi North 4.6 mph - N/A   Overcast
8:54 PM 6.1 °F -2.8 °F 2.1 °F 84% 30.26 in 10.0 mi North 4.6 mph - N/A   Scattered Clouds
9:13 PM 5.9 °F -1.1 °F 1.9 °F 84% 30.27 in 10.0 mi North 3.5 mph - N/A   Clear
9:35 PM 5.2 °F -3.8 °F 1.6 °F 85% 30.27 in 10.0 mi NNE 4.6 mph - N/A   Clear
9:54 PM 4.8 °F -4.3 °F 1.2 °F 85% 30.26 in 10.0 mi North 4.6 mph - N/A   Scattered Clouds
10:14 PM 3.9 °F -5.3 °F 0.7 °F 86% 30.28 in 10.0 mi North 4.6 mph - N/A   Scattered Clouds
10:34 PM 4.6 °F - 1.4 °F 86% 30.29 in 10.0 mi Calm Calm - N/A   Clear
10:54 PM 4.6 °F -2.5 °F 1.4 °F 86% 30.30 in 10.0 mi North 3.5 mph - N/A   Clear
11:14 PM 3.9 °F -3.4 °F 0.3 °F 85% 30.30 in 10.0 mi North 3.5 mph - N/A   Mostly Cloudy
11:34 PM 4.1 °F - 0.1 °F 84% 30.30 in 10.0 mi Calm Calm - N/A   Overcast
11:54 PM 5.5 °F -1.5 °F 1.8 °F 84% 30.30 in 10.0 mi North 3.5 mph - N/A   Overcast